contact:dominique.lefevre@mio.osupytheas.fr, maurice.libes@osupytheas.fr, didier.mallarino@osupytheas.fr
Project:EMSO http://www.emso-fr.org/EMSO-France
Depth: 2436.0 m
Title:EMSO Ligure Ouest : Data MII capteur CSTAR
DateTime,Latitude,Longitude,Instrument_Serial,Reference_Counts,Signal_Counts,Corrected_Signal_raw_counts,Calculated_Beam_c_inverse_meters,Internal_thermistor_counts
DateTime,Latitude,Longitude,Instrument_Serial,Reference_Counts,Signal_Counts,Corrected_Signal_raw_counts,Calculated_Beam_c_inverse_meters,Internal_thermistor_counts
2021-06-10T00:01:06,42.805,6.029,CST-1368DR,5497,7667,14977,0.167,551
2021-06-10T00:04:08,42.805,6.029,CST-1368DR,5497,7666,14976,0.167,551
2021-06-10T00:07:09,42.805,6.029,CST-1368DR,5498,7668,14976,0.167,551
2021-06-10T00:10:11,42.805,6.029,CST-1368DR,5498,7668,14976,0.167,551
2021-06-10T00:13:12,42.805,6.029,CST-1368DR,5498,7669,14978,0.167,551
2021-06-10T00:16:14,42.805,6.029,CST-1368DR,5498,7667,14974,0.168,551
2021-06-10T00:19:16,42.805,6.029,CST-1368DR,5498,7668,14976,0.167,551
2021-06-10T00:22:17,42.805,6.029,CST-1368DR,5498,7668,14976,0.167,551
2021-06-10T00:25:19,42.805,6.029,CST-1368DR,5498,7668,14977,0.167,551
2021-06-10T00:28:20,42.805,6.029,CST-1368DR,5498,7668,14976,0.167,551
2021-06-10T00:31:22,42.805,6.029,CST-1368DR,5498,7667,14974,0.168,550
2021-06-10T00:34:24,42.805,6.029,CST-1368DR,5498,7668,14976,0.167,551
2021-06-10T00:37:25,42.805,6.029,CST-1368DR,5498,7667,14975,0.168,551
2021-06-10T00:40:27,42.805,6.029,CST-1368DR,5498,7668,14976,0.167,551
2021-06-10T00:43:28,42.805,6.029,CST-1368DR,5497,7668,14979,0.167,551
2021-06-10T00:46:30,42.805,6.029,CST-1368DR,5497,7666,14975,0.168,551
2021-06-10T00:49:31,42.805,6.029,CST-1368DR,5497,7662,14967,0.170,551
2021-06-10T00:52:33,42.805,6.029,CST-1368DR,5497,7665,14974,0.168,551
2021-06-10T00:55:35,42.805,6.029,CST-1368DR,5497,7668,14978,0.167,551
2021-06-10T00:58:36,42.805,6.029,CST-1368DR,5498,7667,14974,0.168,551
2021-06-10T01:01:38,42.805,6.029,CST-1368DR,5497,7668,14978,0.167,551
2021-06-10T01:04:39,42.805,6.029,CST-1368DR,5497,7667,14977,0.167,551
2021-06-10T01:07:41,42.805,6.029,CST-1368DR,5497,7667,14977,0.167,551
2021-06-10T01:10:43,42.805,6.029,CST-1368DR,5497,7667,14977,0.167,551
2021-06-10T01:13:44,42.805,6.029,CST-1368DR,5497,7667,14977,0.167,551
2021-06-10T01:16:46,42.805,6.029,CST-1368DR,5497,7668,14979,0.167,551
2021-06-10T01:19:47,42.805,6.029,CST-1368DR,5497,7667,14976,0.167,551
2021-06-10T01:22:49,42.805,6.029,CST-1368DR,5497,7668,14980,0.166,551
2021-06-10T01:25:50,42.805,6.029,CST-1368DR,5497,7668,14978,0.167,551
2021-06-10T01:28:52,42.805,6.029,CST-1368DR,5497,7666,14976,0.167,551
2021-06-10T01:31:54,42.805,6.029,CST-1368DR,5497,7667,14977,0.167,551
2021-06-10T01:34:55,42.805,6.029,CST-1368DR,5497,7667,14977,0.167,551
2021-06-10T01:37:57,42.805,6.029,CST-1368DR,5497,7667,14976,0.167,551
2021-06-10T01:40:58,42.805,6.029,CST-1368DR,5497,7667,14977,0.167,551
2021-06-10T01:44:00,42.805,6.029,CST-1368DR,5497,7668,14978,0.167,550
2021-06-10T01:47:01,42.805,6.029,CST-1368DR,5497,7667,14977,0.167,551
2021-06-10T01:50:03,42.805,6.029,CST-1368DR,5497,7668,14979,0.167,551
2021-06-10T01:53:05,42.805,6.029,CST-1368DR,5497,7667,14976,0.167,551
2021-06-10T01:56:06,42.805,6.029,CST-1368DR,5497,7666,14976,0.167,551
2021-06-10T01:59:08,42.805,6.029,CST-1368DR,5497,7667,14976,0.167,551
2021-06-10T02:02:09,42.805,6.029,CST-1368DR,5497,7668,14978,0.167,551
2021-06-10T02:05:11,42.805,6.029,CST-1368DR,5497,7668,14978,0.167,551
2021-06-10T02:08:13,42.805,6.029,CST-1368DR,5497,7667,14977,0.167,551
2021-06-10T02:11:14,42.805,6.029,CST-1368DR,5497,7666,14975,0.168,551
2021-06-10T02:14:16,42.805,6.029,CST-1368DR,5497,7666,14976,0.167,551
2021-06-10T02:17:17,42.805,6.029,CST-1368DR,5497,7666,14976,0.167,550
2021-06-10T02:20:19,42.805,6.029,CST-1368DR,5497,7667,14976,0.167,551
2021-06-10T02:23:20,42.805,6.029,CST-1368DR,5497,7667,14977,0.167,551
2021-06-10T02:26:22,42.805,6.029,CST-1368DR,5497,7668,14978,0.167,551
2021-06-10T02:29:24,42.805,6.029,CST-1368DR,5497,7668,14978,0.167,551
2021-06-10T02:32:25,42.805,6.029,CST-1368DR,5497,7668,14979,0.167,551
2021-06-10T02:35:27,42.805,6.029,CST-1368DR,5497,7665,14973,0.168,551
2021-06-10T02:38:28,42.805,6.029,CST-1368DR,5497,7667,14976,0.167,551
2021-06-10T02:41:30,42.805,6.029,CST-1368DR,5497,7666,14976,0.167,551
2021-06-10T02:44:32,42.805,6.029,CST-1368DR,5497,7668,14979,0.167,551
2021-06-10T02:47:33,42.805,6.029,CST-1368DR,5497,7667,14977,0.167,551
2021-06-10T02:50:35,42.805,6.029,CST-1368DR,5497,7667,14977,0.167,551
2021-06-10T02:53:36,42.805,6.029,CST-1368DR,5497,7668,14979,0.167,551
2021-06-10T02:56:38,42.805,6.029,CST-1368DR,5497,7666,14976,0.167,551
2021-06-10T02:59:39,42.805,6.029,CST-1368DR,5497,7666,14976,0.167,551
2021-06-10T03:02:41,42.805,6.029,CST-1368DR,5497,7667,14976,0.167,551
2021-06-10T03:05:43,42.805,6.029,CST-1368DR,5497,7667,14976,0.167,551
2021-06-10T03:08:44,42.805,6.029,CST-1368DR,5497,7666,14975,0.168,551
2021-06-10T03:11:46,42.805,6.029,CST-1368DR,5497,7667,14976,0.167,551
2021-06-10T03:14:47,42.805,6.029,CST-1368DR,5497,7667,14976,0.167,551
2021-06-10T03:17:49,42.805,6.029,CST-1368DR,5497,7667,14977,0.167,551
2021-06-10T03:20:51,42.805,6.029,CST-1368DR,5497,7667,14977,0.167,551
2021-06-10T03:23:52,42.805,6.029,CST-1368DR,5497,7667,14977,0.167,551
2021-06-10T03:26:54,42.805,6.029,CST-1368DR,5497,7662,14967,0.170,551
2021-06-10T03:29:55,42.805,6.029,CST-1368DR,5497,7667,14976,0.167,551
2021-06-10T03:32:57,42.805,6.029,CST-1368DR,5497,7666,14976,0.167,551
2021-06-10T03:35:58,42.805,6.029,CST-1368DR,5497,7667,14976,0.167,551
2021-06-10T03:39:00,42.805,6.029,CST-1368DR,5497,7668,14978,0.167,551
2021-06-10T03:42:02,42.805,6.029,CST-1368DR,5497,7669,14981,0.166,551
2021-06-10T03:45:03,42.805,6.029,CST-1368DR,5497,7667,14976,0.167,551
2021-06-10T03:48:05,42.805,6.029,CST-1368DR,5497,7667,14977,0.167,551
2021-06-10T03:51:06,42.805,6.029,CST-1368DR,5497,7668,14979,0.167,551
2021-06-10T03:54:08,42.805,6.029,CST-1368DR,5497,7668,14979,0.167,551
2021-06-10T03:57:09,42.805,6.029,CST-1368DR,5497,7668,14980,0.166,551
2021-06-10T04:00:11,42.805,6.029,CST-1368DR,5497,7668,14980,0.166,551
2021-06-10T04:03:13,42.805,6.029,CST-1368DR,5497,7668,14980,0.166,551
2021-06-10T04:06:14,42.805,6.029,CST-1368DR,5497,7668,14979,0.167,550
2021-06-10T04:09:16,42.805,6.029,CST-1368DR,5497,7668,14978,0.167,551
2021-06-10T04:12:17,42.805,6.029,CST-1368DR,5497,7667,14977,0.167,551
2021-06-10T04:15:19,42.805,6.029,CST-1368DR,5497,7667,14977,0.167,551
2021-06-10T04:18:21,42.805,6.029,CST-1368DR,5497,7668,14979,0.167,551
2021-06-10T04:21:22,42.805,6.029,CST-1368DR,5497,7668,14980,0.166,551
2021-06-10T04:24:24,42.805,6.029,CST-1368DR,5497,7668,14979,0.167,551
2021-06-10T04:27:25,42.805,6.029,CST-1368DR,5497,7668,14979,0.167,551
2021-06-10T04:30:27,42.805,6.029,CST-1368DR,5497,7668,14978,0.167,551
2021-06-10T04:33:28,42.805,6.029,CST-1368DR,5497,7668,14980,0.166,551
2021-06-10T04:36:30,42.805,6.029,CST-1368DR,5497,7668,14978,0.167,551
2021-06-10T04:39:32,42.805,6.029,CST-1368DR,5497,7668,14978,0.167,551
2021-06-10T04:42:33,42.805,6.029,CST-1368DR,5497,7668,14978,0.167,551
2021-06-10T04:45:35,42.805,6.029,CST-1368DR,5497,7668,14979,0.167,550
2021-06-10T04:48:36,42.805,6.029,CST-1368DR,5497,7669,14980,0.166,551
2021-06-10T04:51:38,42.805,6.029,CST-1368DR,5497,7666,14975,0.168,551
2021-06-10T04:54:40,42.805,6.029,CST-1368DR,5497,7668,14979,0.167,551
2021-06-10T04:57:41,42.805,6.029,CST-1368DR,5497,7668,14979,0.167,551
2021-06-10T05:00:43,42.805,6.029,CST-1368DR,5497,7665,14973,0.168,551
2021-06-10T05:03:44,42.805,6.029,CST-1368DR,5497,7667,14977,0.167,551
2021-06-10T05:06:46,42.805,6.029,CST-1368DR,5497,7667,14977,0.167,551
2021-06-10T05:09:47,42.805,6.029,CST-1368DR,5497,7668,14978,0.167,551
2021-06-10T05:12:49,42.805,6.029,CST-1368DR,5497,7668,14979,0.167,551
2021-06-10T05:15:51,42.805,6.029,CST-1368DR,5497,7668,14978,0.167,551
2021-06-10T05:18:52,42.805,6.029,CST-1368DR,5497,7667,14977,0.167,551
2021-06-10T05:21:54,42.805,6.029,CST-1368DR,5497,7667,14977,0.167,551
2021-06-10T05:24:55,42.805,6.029,CST-1368DR,5497,7667,14976,0.167,551
2021-06-10T05:27:57,42.805,6.029,CST-1368DR,5497,7667,14976,0.167,551
2021-06-10T05:30:58,42.805,6.029,CST-1368DR,5497,7667,14976,0.167,551
2021-06-10T05:34:00,42.805,6.029,CST-1368DR,5497,7668,14979,0.167,551
2021-06-10T05:37:02,42.805,6.029,CST-1368DR,5497,7667,14977,0.167,551
2021-06-10T05:40:03,42.805,6.029,CST-1368DR,5497,7667,14976,0.167,550
2021-06-10T05:43:05,42.805,6.029,CST-1368DR,5497,7667,14977,0.167,551
2021-06-10T05:46:06,42.805,6.029,CST-1368DR,5497,7668,14979,0.167,551
2021-06-10T05:49:08,42.805,6.029,CST-1368DR,5497,7666,14975,0.168,550
2021-06-10T05:52:10,42.805,6.029,CST-1368DR,5497,7667,14977,0.167,551
2021-06-10T05:55:11,42.805,6.029,CST-1368DR,5497,7667,14977,0.167,551
2021-06-10T05:58:13,42.805,6.029,CST-1368DR,5497,7667,14977,0.167,551
2021-06-10T06:01:14,42.805,6.029,CST-1368DR,5497,7666,14976,0.167,551
2021-06-10T06:04:16,42.805,6.029,CST-1368DR,5497,7668,14979,0.167,551
2021-06-10T06:07:17,42.805,6.029,CST-1368DR,5497,7668,14979,0.167,551
2021-06-10T06:10:19,42.805,6.029,CST-1368DR,5497,7668,14978,0.167,551
2021-06-10T06:13:21,42.805,6.029,CST-1368DR,5497,7667,14977,0.167,551
2021-06-10T06:16:22,42.805,6.029,CST-1368DR,5497,7667,14977,0.167,551
2021-06-10T06:19:24,42.805,6.029,CST-1368DR,5497,7668,14978,0.167,551
2021-06-10T06:22:25,42.805,6.029,CST-1368DR,5497,7668,14979,0.167,551
2021-06-10T06:25:27,42.805,6.029,CST-1368DR,5497,7667,14977,0.167,551
2021-06-10T06:28:29,42.805,6.029,CST-1368DR,5497,7668,14978,0.167,551
2021-06-10T06:31:30,42.805,6.029,CST-1368DR,5497,7667,14976,0.167,551
2021-06-10T06:34:32,42.805,6.029,CST-1368DR,5497,7665,14973,0.168,551
2021-06-10T06:37:33,42.805,6.029,CST-1368DR,5497,7668,14978,0.167,551
2021-06-10T06:40:35,42.805,6.029,CST-1368DR,5497,7667,14977,0.167,551
2021-06-10T06:43:36,42.805,6.029,CST-1368DR,5497,7666,14975,0.168,551
2021-06-10T06:46:38,42.805,6.029,CST-1368DR,5497,7667,14977,0.167,551
2021-06-10T06:49:40,42.805,6.029,CST-1368DR,5497,7666,14975,0.168,551
2021-06-10T06:52:41,42.805,6.029,CST-1368DR,5497,7667,14977,0.167,551
2021-06-10T06:55:43,42.805,6.029,CST-1368DR,5497,7665,14974,0.168,551
2021-06-10T06:58:44,42.805,6.029,CST-1368DR,5497,7668,14979,0.167,551
2021-06-10T07:01:46,42.805,6.029,CST-1368DR,5497,7668,14980,0.166,551
2021-06-10T07:04:47,42.805,6.029,CST-1368DR,5497,7667,14976,0.167,551
2021-06-10T07:07:49,42.805,6.029,CST-1368DR,5497,7667,14977,0.167,551
2021-06-10T07:10:51,42.805,6.029,CST-1368DR,5497,7667,14977,0.167,551
2021-06-10T07:13:52,42.805,6.029,CST-1368DR,5497,7667,14977,0.167,551
2021-06-10T07:16:54,42.805,6.029,CST-1368DR,5497,7668,14978,0.167,551
2021-06-10T07:19:55,42.805,6.029,CST-1368DR,5497,7667,14976,0.167,551
2021-06-10T07:22:57,42.805,6.029,CST-1368DR,5497,7667,14977,0.167,551
2021-06-10T07:25:59,42.805,6.029,CST-1368DR,5497,7667,14977,0.167,551
2021-06-10T07:29:00,42.805,6.029,CST-1368DR,5497,7668,14979,0.167,551
2021-06-10T07:32:02,42.805,6.029,CST-1368DR,5497,7668,14978,0.167,551
2021-06-10T07:35:03,42.805,6.029,CST-1368DR,5497,7667,14977,0.167,551
2021-06-10T07:38:05,42.805,6.029,CST-1368DR,5497,7668,14978,0.167,551
2021-06-10T07:41:06,42.805,6.029,CST-1368DR,5497,7666,14976,0.167,551
2021-06-10T07:44:08,42.805,6.029,CST-1368DR,5497,7665,14973,0.168,551
2021-06-10T07:47:10,42.805,6.029,CST-1368DR,5497,7665,14972,0.168,551
2021-06-10T07:50:11,42.805,6.029,CST-1368DR,5497,7667,14976,0.167,551
2021-06-10T07:53:13,42.805,6.029,CST-1368DR,5497,7667,14976,0.167,551
2021-06-10T07:56:14,42.805,6.029,CST-1368DR,5497,7668,14979,0.167,551
2021-06-10T07:59:16,42.805,6.029,CST-1368DR,5497,7668,14978,0.167,551
2021-06-10T08:02:18,42.805,6.029,CST-1368DR,5497,7667,14977,0.167,551
2021-06-10T08:05:19,42.805,6.029,CST-1368DR,5497,7667,14977,0.167,551
2021-06-10T08:08:21,42.805,6.029,CST-1368DR,5497,7667,14977,0.167,551
2021-06-10T08:11:22,42.805,6.029,CST-1368DR,5497,7667,14976,0.167,551
2021-06-10T08:14:24,42.805,6.029,CST-1368DR,5497,7666,14975,0.168,551
2021-06-10T08:17:25,42.805,6.029,CST-1368DR,5497,7667,14977,0.167,551
2021-06-10T08:20:27,42.805,6.029,CST-1368DR,5497,7668,14979,0.167,551
2021-06-10T08:23:29,42.805,6.029,CST-1368DR,5497,7668,14979,0.167,551
2021-06-10T08:26:30,42.805,6.029,CST-1368DR,5497,7666,14974,0.168,551
2021-06-10T08:29:32,42.805,6.029,CST-1368DR,5497,7667,14977,0.167,551
2021-06-10T08:32:33,42.805,6.029,CST-1368DR,5497,7667,14977,0.167,551
2021-06-10T08:35:35,42.805,6.029,CST-1368DR,5497,7667,14977,0.167,551
2021-06-10T08:38:36,42.805,6.029,CST-1368DR,5497,7666,14975,0.168,551
2021-06-10T08:41:38,42.805,6.029,CST-1368DR,5497,7667,14977,0.167,551
2021-06-10T08:44:40,42.805,6.029,CST-1368DR,5497,7668,14978,0.167,551
2021-06-10T08:47:41,42.805,6.029,CST-1368DR,5497,7667,14976,0.167,551
2021-06-10T08:50:43,42.805,6.029,CST-1368DR,5497,7667,14977,0.167,551
2021-06-10T08:53:44,42.805,6.029,CST-1368DR,5497,7668,14978,0.167,550
2021-06-10T08:56:46,42.805,6.029,CST-1368DR,5497,7667,14976,0.167,551
2021-06-10T08:59:48,42.805,6.029,CST-1368DR,5497,7666,14975,0.168,551
2021-06-10T09:02:49,42.805,6.029,CST-1368DR,5497,7668,14979,0.167,551
2021-06-10T09:05:51,42.805,6.029,CST-1368DR,5497,7667,14976,0.167,551
2021-06-10T09:08:52,42.805,6.029,CST-1368DR,5497,7667,14977,0.167,551
2021-06-10T09:11:54,42.805,6.029,CST-1368DR,5497,7667,14976,0.167,551
2021-06-10T09:14:55,42.805,6.029,CST-1368DR,5497,7667,14976,0.167,551
2021-06-10T09:17:57,42.805,6.029,CST-1368DR,5497,7666,14976,0.167,551
2021-06-10T09:20:59,42.805,6.029,CST-1368DR,5497,7667,14976,0.167,551
2021-06-10T09:24:00,42.805,6.029,CST-1368DR,5497,7666,14975,0.168,551
2021-06-10T09:27:02,42.805,6.029,CST-1368DR,5497,7666,14976,0.167,551
2021-06-10T09:30:03,42.805,6.029,CST-1368DR,5497,7668,14979,0.167,551
2021-06-10T09:33:05,42.805,6.029,CST-1368DR,5497,7665,14974,0.168,551
2021-06-10T09:36:07,42.805,6.029,CST-1368DR,5497,7666,14976,0.167,551
2021-06-10T09:39:08,42.805,6.029,CST-1368DR,5497,7666,14975,0.168,551
2021-06-10T09:42:10,42.805,6.029,CST-1368DR,5496,7666,14977,0.167,551
2021-06-10T09:45:11,42.805,6.029,CST-1368DR,5497,7665,14973,0.168,551
2021-06-10T09:48:13,42.805,6.029,CST-1368DR,5497,7667,14977,0.167,551
2021-06-10T09:51:14,42.805,6.029,CST-1368DR,5497,7667,14976,0.167,551
2021-06-10T09:54:16,42.805,6.029,CST-1368DR,5497,7667,14976,0.167,551
2021-06-10T09:57:18,42.805,6.029,CST-1368DR,5497,7666,14976,0.167,550
2021-06-10T10:00:19,42.805,6.029,CST-1368DR,5497,7666,14976,0.167,551
2021-06-10T10:03:21,42.805,6.029,CST-1368DR,5496,7666,14977,0.167,551
2021-06-10T10:06:22,42.805,6.029,CST-1368DR,5497,7667,14977,0.167,551
2021-06-10T10:09:24,42.805,6.029,CST-1368DR,5497,7668,14978,0.167,551
2021-06-10T10:12:25,42.805,6.029,CST-1368DR,5497,7667,14977,0.167,551
2021-06-10T10:15:27,42.805,6.029,CST-1368DR,5497,7667,14976,0.167,551
2021-06-10T10:18:29,42.805,6.029,CST-1368DR,5497,7666,14976,0.167,551
2021-06-10T10:21:30,42.805,6.029,CST-1368DR,5496,7667,14980,0.166,551
2021-06-10T10:24:32,42.805,6.029,CST-1368DR,5496,7666,14978,0.167,551
2021-06-10T10:27:33,42.805,6.029,CST-1368DR,5496,7667,14980,0.166,551
2021-06-10T10:30:35,42.805,6.029,CST-1368DR,5496,7666,14978,0.167,551
2021-06-10T10:33:37,42.805,6.029,CST-1368DR,5497,7667,14977,0.167,551
2021-06-10T10:36:38,42.805,6.029,CST-1368DR,5497,7666,14975,0.168,551
2021-06-10T10:39:40,42.805,6.029,CST-1368DR,5496,7667,14979,0.167,551
2021-06-10T10:42:41,42.805,6.029,CST-1368DR,5496,7666,14977,0.167,551
2021-06-10T10:45:43,42.805,6.029,CST-1368DR,5496,7664,14974,0.168,551
2021-06-10T10:48:44,42.805,6.029,CST-1368DR,5496,7666,14977,0.167,551
2021-06-10T10:51:46,42.805,6.029,CST-1368DR,5496,7667,14979,0.167,551
2021-06-10T10:54:48,42.805,6.029,CST-1368DR,5496,7666,14978,0.167,551
2021-06-10T10:57:49,42.805,6.029,CST-1368DR,5496,7667,14979,0.167,551
2021-06-10T11:00:51,42.805,6.029,CST-1368DR,5496,7666,14978,0.167,551
2021-06-10T11:03:52,42.805,6.029,CST-1368DR,5496,7667,14980,0.166,551
2021-06-10T11:06:54,42.805,6.029,CST-1368DR,5496,7666,14978,0.167,551
2021-06-10T11:09:55,42.805,6.029,CST-1368DR,5496,7666,14977,0.167,551
2021-06-10T11:12:57,42.805,6.029,CST-1368DR,5496,7667,14980,0.166,551
2021-06-10T11:15:59,42.805,6.029,CST-1368DR,5496,7666,14977,0.167,551
2021-06-10T11:19:00,42.805,6.029,CST-1368DR,5496,7667,14979,0.167,551
2021-06-10T11:22:02,42.805,6.029,CST-1368DR,5496,7667,14979,0.167,551
2021-06-10T11:25:03,42.805,6.029,CST-1368DR,5496,7666,14978,0.167,551
2021-06-10T11:28:05,42.805,6.029,CST-1368DR,5496,7668,14981,0.166,551
2021-06-10T11:31:07,42.805,6.029,CST-1368DR,5496,7667,14979,0.167,551
2021-06-10T11:34:08,42.805,6.029,CST-1368DR,5496,7667,14980,0.166,551
2021-06-10T11:37:10,42.805,6.029,CST-1368DR,5496,7667,14980,0.166,551
2021-06-10T11:40:11,42.805,6.029,CST-1368DR,5496,7666,14977,0.167,551
2021-06-10T11:43:13,42.805,6.029,CST-1368DR,5496,7666,14977,0.167,551
2021-06-10T11:46:14,42.805,6.029,CST-1368DR,5496,7667,14980,0.166,551
2021-06-10T11:49:16,42.805,6.029,CST-1368DR,5496,7667,14980,0.166,551
2021-06-10T11:52:18,42.805,6.029,CST-1368DR,5496,7666,14978,0.167,551
2021-06-10T11:55:19,42.805,6.029,CST-1368DR,5496,7666,14978,0.167,551
2021-06-10T11:58:21,42.805,6.029,CST-1368DR,5496,7666,14978,0.167,551
2021-06-10T12:01:22,42.805,6.029,CST-1368DR,5496,7666,14977,0.167,551
2021-06-10T12:04:24,42.805,6.029,CST-1368DR,5496,7666,14978,0.167,551
2021-06-10T12:07:26,42.805,6.029,CST-1368DR,5496,7666,14978,0.167,551
2021-06-10T12:10:27,42.805,6.029,CST-1368DR,5496,7665,14976,0.167,551
2021-06-10T12:13:29,42.805,6.029,CST-1368DR,5496,7667,14979,0.167,551
2021-06-10T12:16:30,42.805,6.029,CST-1368DR,5496,7667,14980,0.166,551
2021-06-10T12:19:32,42.805,6.029,CST-1368DR,5496,7667,14980,0.166,551
2021-06-10T12:22:33,42.805,6.029,CST-1368DR,5496,7667,14979,0.167,551
2021-06-10T12:25:35,42.805,6.029,CST-1368DR,5496,7668,14981,0.166,551
2021-06-10T12:28:37,42.805,6.029,CST-1368DR,5496,7665,14975,0.168,551
2021-06-10T12:31:38,42.805,6.029,CST-1368DR,5496,7667,14979,0.167,551
2021-06-10T12:34:40,42.805,6.029,CST-1368DR,5496,7666,14977,0.167,551
2021-06-10T12:37:41,42.805,6.029,CST-1368DR,5496,7667,14980,0.166,551
2021-06-10T12:40:43,42.805,6.029,CST-1368DR,5496,7665,14976,0.167,551
2021-06-10T12:43:44,42.805,6.029,CST-1368DR,5496,7666,14978,0.167,551
2021-06-10T12:46:46,42.805,6.029,CST-1368DR,5496,7668,14981,0.166,551
2021-06-10T12:49:48,42.805,6.029,CST-1368DR,5496,7666,14978,0.167,551
2021-06-10T12:52:49,42.805,6.029,CST-1368DR,5496,7668,14981,0.166,551
2021-06-10T12:55:51,42.805,6.029,CST-1368DR,5496,7665,14976,0.167,551
2021-06-10T12:58:52,42.805,6.029,CST-1368DR,5496,7666,14978,0.167,551
2021-06-10T13:01:54,42.805,6.029,CST-1368DR,5496,7667,14979,0.167,551
2021-06-10T13:04:56,42.805,6.029,CST-1368DR,5496,7666,14978,0.167,551
2021-06-10T13:07:57,42.805,6.029,CST-1368DR,5496,7667,14980,0.166,550
2021-06-10T13:10:59,42.805,6.029,CST-1368DR,5496,7666,14978,0.167,551
2021-06-10T13:14:00,42.805,6.029,CST-1368DR,5496,7667,14980,0.166,551
2021-06-10T13:17:02,42.805,6.029,CST-1368DR,5496,7667,14979,0.167,551
2021-06-10T13:20:03,42.805,6.029,CST-1368DR,5496,7667,14979,0.167,551
2021-06-10T13:23:05,42.805,6.029,CST-1368DR,5496,7667,14979,0.167,551
2021-06-10T13:26:07,42.805,6.029,CST-1368DR,5496,7666,14978,0.167,551
2021-06-10T13:29:08,42.805,6.029,CST-1368DR,5496,7666,14978,0.167,551
2021-06-10T13:32:10,42.805,6.029,CST-1368DR,5496,7665,14976,0.167,551
2021-06-10T13:35:11,42.805,6.029,CST-1368DR,5496,7666,14977,0.167,551
2021-06-10T13:38:13,42.805,6.029,CST-1368DR,5496,7666,14978,0.167,551
2021-06-10T13:41:15,42.805,6.029,CST-1368DR,5496,7667,14979,0.167,551
2021-06-10T13:44:16,42.805,6.029,CST-1368DR,5496,7667,14979,0.167,551
2021-06-10T13:47:18,42.805,6.029,CST-1368DR,5496,7666,14978,0.167,551
2021-06-10T13:50:19,42.805,6.029,CST-1368DR,5496,7666,14977,0.167,551
2021-06-10T13:53:21,42.805,6.029,CST-1368DR,5496,7665,14976,0.167,551
2021-06-10T13:56:22,42.805,6.029,CST-1368DR,5496,7664,14973,0.168,551
2021-06-10T13:59:24,42.805,6.029,CST-1368DR,5496,7662,14970,0.169,551
2021-06-10T14:02:26,42.805,6.029,CST-1368DR,5496,7664,14973,0.168,551
2021-06-10T14:05:27,42.805,6.029,CST-1368DR,5496,7664,14974,0.168,551
2021-06-10T14:08:29,42.805,6.029,CST-1368DR,5496,7665,14975,0.168,551
2021-06-10T14:11:30,42.805,6.029,CST-1368DR,5496,7665,14975,0.168,551
2021-06-10T14:14:32,42.805,6.029,CST-1368DR,5496,7666,14977,0.167,551
2021-06-10T14:17:33,42.805,6.029,CST-1368DR,5496,7666,14977,0.167,551
2021-06-10T14:20:35,42.805,6.029,CST-1368DR,5496,7666,14977,0.167,551
2021-06-10T14:23:37,42.805,6.029,CST-1368DR,5496,7666,14977,0.167,551
2021-06-10T14:26:38,42.805,6.029,CST-1368DR,5496,7666,14977,0.167,551
2021-06-10T14:29:40,42.805,6.029,CST-1368DR,5496,7665,14975,0.168,551
2021-06-10T14:32:41,42.805,6.029,CST-1368DR,5496,7665,14976,0.167,551
2021-06-10T14:35:43,42.805,6.029,CST-1368DR,5496,7667,14979,0.167,551
2021-06-10T14:38:45,42.805,6.029,CST-1368DR,5496,7665,14975,0.168,551
2021-06-10T14:41:46,42.805,6.029,CST-1368DR,5496,7662,14970,0.169,551
2021-06-10T14:44:48,42.805,6.029,CST-1368DR,5496,7665,14976,0.167,551
2021-06-10T14:47:49,42.805,6.029,CST-1368DR,5496,7665,14975,0.168,551
2021-06-10T14:50:51,42.805,6.029,CST-1368DR,5496,7666,14977,0.167,551
2021-06-10T14:53:52,42.805,6.029,CST-1368DR,5496,7665,14975,0.168,551
2021-06-10T14:56:54,42.805,6.029,CST-1368DR,5496,7664,14974,0.168,551
2021-06-10T14:59:56,42.805,6.029,CST-1368DR,5496,7662,14970,0.169,550
2021-06-10T15:02:57,42.805,6.029,CST-1368DR,5496,7664,14974,0.168,551
2021-06-10T15:05:59,42.805,6.029,CST-1368DR,5496,7664,14974,0.168,551
2021-06-10T15:09:00,42.805,6.029,CST-1368DR,5496,7665,14975,0.168,551
2021-06-10T15:12:02,42.805,6.029,CST-1368DR,5495,7661,14970,0.169,551
2021-06-10T15:15:04,42.805,6.029,CST-1368DR,5495,7661,14971,0.169,551
2021-06-10T15:18:05,42.805,6.029,CST-1368DR,5496,7660,14966,0.170,551
2021-06-10T15:21:07,42.805,6.029,CST-1368DR,5496,7663,14972,0.168,551
2021-06-10T15:24:08,42.805,6.029,CST-1368DR,5496,7665,14976,0.167,551
2021-06-10T15:27:10,42.805,6.029,CST-1368DR,5496,7665,14976,0.167,551
2021-06-10T15:30:11,42.805,6.029,CST-1368DR,5495,7663,14974,0.168,551
2021-06-10T15:33:13,42.805,6.029,CST-1368DR,5495,7664,14976,0.167,551
2021-06-10T15:36:15,42.805,6.029,CST-1368DR,5496,7663,14972,0.168,551
2021-06-10T15:39:16,42.805,6.029,CST-1368DR,5495,7665,14978,0.167,551
2021-06-10T15:42:18,42.805,6.029,CST-1368DR,5495,7665,14977,0.167,551
2021-06-10T15:45:19,42.805,6.029,CST-1368DR,5495,7665,14978,0.167,551
2021-06-10T15:48:21,42.805,6.029,CST-1368DR,5495,7666,14979,0.167,551
2021-06-10T15:51:22,42.805,6.029,CST-1368DR,5495,7663,14975,0.168,551
2021-06-10T15:54:24,42.805,6.029,CST-1368DR,5495,7665,14978,0.167,551
2021-06-10T15:57:26,42.805,6.029,CST-1368DR,5495,7665,14978,0.167,551
2021-06-10T16:00:27,42.805,6.029,CST-1368DR,5495,7665,14978,0.167,551
2021-06-10T16:03:29,42.805,6.029,CST-1368DR,5495,7664,14976,0.167,551
2021-06-10T16:06:30,42.805,6.029,CST-1368DR,5495,7661,14970,0.169,550
2021-06-10T16:09:32,42.805,6.029,CST-1368DR,5495,7665,14978,0.167,551
2021-06-10T16:12:34,42.805,6.029,CST-1368DR,5495,7663,14974,0.168,551
2021-06-10T16:15:35,42.805,6.029,CST-1368DR,5495,7664,14976,0.167,551
2021-06-10T16:18:37,42.805,6.029,CST-1368DR,5494,7663,14977,0.167,551
2021-06-10T16:21:38,42.805,6.029,CST-1368DR,5494,7662,14975,0.168,551
2021-06-10T16:24:40,42.805,6.029,CST-1368DR,5494,7664,14978,0.167,550
2021-06-10T16:27:41,42.805,6.029,CST-1368DR,5494,7663,14977,0.167,550
2021-06-10T16:30:43,42.805,6.029,CST-1368DR,5494,7658,14966,0.170,551
2021-06-10T16:33:45,42.805,6.029,CST-1368DR,5494,7664,14979,0.167,551
2021-06-10T16:36:46,42.805,6.029,CST-1368DR,5494,7661,14973,0.168,551
2021-06-10T16:39:48,42.805,6.029,CST-1368DR,5494,7662,14974,0.168,551
2021-06-10T16:42:49,42.805,6.029,CST-1368DR,5494,7665,14980,0.166,551
2021-06-10T16:45:51,42.805,6.029,CST-1368DR,5495,7665,14977,0.167,551
2021-06-10T16:48:53,42.805,6.029,CST-1368DR,5495,7664,14977,0.167,551
2021-06-10T16:51:54,42.805,6.029,CST-1368DR,5495,7662,14972,0.168,551